Location: Las Callecitas
(9.8750°N, 67.4611°W)
Time: 10:49:08
(UTC+00:00)

Cosmos 1862 Rocket - Pass Details

Date: 14 April 2024
Orbit: 600 x 630 km, 82.5° (Epoch: 24 May)

Event Time Altitude Azimuth Distance (km) Brightness Sun altitude
Rises 09:46:53 0° 183° (S) 2,911 6.9 -8.8°
Reaches altitude 10° 09:49:07 10° 183° (S) 2,002 6.0 -8.3°
Maximum altitude 09:53:34 88° 98° (E) 630 3.6 -7.2°
Drops below altitude 10° 09:57:59 10° 5° (N) 1,988 6.4 -6.1°
Sets 10:00:12 0° 5° (N) 2,889 7.2 -5.6°
